星链-2673 (STARLINK-2673 )

导读

STARLINK-2673是美国SpaceX公司星链星座的成员卫星,于2021年5月26日发射入轨,属于星链互联网星座的早期部署卫星。星链项目旨在构建全球低轨卫星互联网,为偏远及基础设施缺失地区提供高速低延迟宽带服务。该卫星运行在近地轨道,参与全球网络覆盖,目前星链已扩展至海事、航空、应急通信等领域,不过大规模低轨卫星部署也引发了太空拥堵与天文观测干扰等争议。

基本信息
目录编号:
48649
目录名称:
STARLINK-2673
国际标识:
2021-044M
轨道中心:
EARTH
卫星名称:
星链-2673
卫星全名:
星链-2673 (STARLINK-2673 )
卫星状态:
在轨 (已飞行1849 天)
发射日期:
2021-05-26 UTC
国别 :
美国 (US)
星等 :
--
轨道信息
数据来源 国际轨道数据
星历时间: 2026-06-18T14:45:26+0800
8小时前
查看轨道信息
半长轴: 6848.884km
偏心率: 0.0001085
轨道倾角: 53.161°
近地点辐角 78.822°
升交点赤经 5.851°
平近点角 281.291°
近地点: 470.003km
远地点: 471.491km
周期: 94.013分钟
每日圈数: 15.316979
详细信息
固有亮度:
5
最大亮度:
2.5
卫星平台:
Starlink V1.0
覆盖范围:
全球
运营商:
太空探索技术公司
运营商所在国:
美国
制造商(研发单位):
太空探索技术公司
制造商所在国:
美国
使用方式:
暂无
卫星简介
星链(Starlink)计划是由太空探索技术公司(SpaceX)提出的一个巨型低轨卫星互联网星座项目,计划在2019年至2024年间在太空搭建由约1.2万颗卫星组成的“星链”网络,其中1584颗将部署在地球上空550千米处的近地轨道,并从2020年开始工作。该卫星仍在工作。
2D轨道图
3D轨道图
轨道高度分析图
轨道倾角分析图
轨道综合分析图
查看轨道综合分析图